Snowfall_Accumulation
0.0 0.0 0.0 0.0 0.0 0.0 0.0 0.0 0.0 0.0 0.0 0.0 0.0 0.0 0.0 0.0 0.0 0.0 0.0 0.0 0.0 0.0 0.0 0.0 0.0 0.0 0.0 0.0 0.0 0.0 0.0 0.0 0.0 0.0 0.0 0.0 0.0 0.0 0.0 0.0 0.0 0.0 0.0 0.0
0.0 0.0 0.0 0.0 0.0 0.0 0.0 0.0 0.0 0.0 0.0 0.0 0.0 0.0 0.0 0.0 0.0 0.0 0.0 0.0 0.0 0.0 0.0 0.0 0.0 0.0 0.0 0.0 0.0 0.0 0.0 0.0 0.0 0.0 0.0 0.0 0.0 0.0 0.0 0.0 0.0 0.0 0.0 0.0
0.3 0.0 0.0 0.8 0.0 0.0 0.0 0.0 0.0 0.0 0.0 0.0 0.0 0.0 0.0 0.0 0.0 0.0 0.0 0.0 0.0 0.0 0.0 0.0 0.0 0.0 0.0 0.0 0.0 0.0 0.0 0.0 0.0 0.0 0.0 0.0 0.0 0.0 0.0 0.0 0.0 0.0 0.0 0.0
1.4 0.2 13.1 0.0 0.0 0.0 0.0 0.0 0.0 0.0 0.0 0.0 0.0 0.0 0.0 0.0 0.0 0.0 0.0 0.0 0.0 0.0 0.0 0.0 0.0 0.0 0.0 0.0 0.0 0.0 0.0 0.0 0.0 0.0 0.0 0.0 0.0 0.0 0.0 0.0 0.0 0.0 0.0 0.0
7.7 1.7 0.0 0.0 0.0 0.0 0.0 0.0 0.0 0.0 0.0 0.0 0.0 0.0 0.0 0.0 0.0 0.0 0.0 0.0 0.0 0.0 0.0 0.0 0.0 0.0 0.0 0.0 0.0 0.0 0.0 0.0 0.0 0.0 0.0 0.0 0.0 0.0 0.0 0.0 0.0 0.0 0.0 0.0
5.0 6.8 4.3 0.0 0.0 0.0 0.0 0.1 0.0 0.0 0.0 0.0 0.0 0.0 0.0 0.0 0.0 0.0 0.0 0.0 0.0 0.0 0.0 0.0 0.0 0.0 0.0 0.0 0.0 0.0 0.0 0.0 0.0 0.0 0.0 0.0 0.0 0.0 0.0 0.0 0.0 0.1 0.0 0.0
0.7 3.7 1.3 0.0 0.0 0.0 0.3 0.0 0.0 0.0 0.0 0.0 0.0 0.0 0.0 0.0 0.0 0.0 0.0 0.0 0.0 0.0 0.0 0.0 0.0 0.0 0.0 0.0 0.0 0.0 0.0 0.0 0.0 0.0 0.0 0.0 0.0 0.0 0.0 0.0 0.0 0.0 0.0 0.0
0.7 2.1 7.3 0.0 0.0 0.0 0.0 0.0 0.0 0.0 0.0 0.0 0.0 0.0 0.0 0.0 0.0 0.0 0.0 0.0 0.0 0.0 0.0 0.0 0.0 0.0 0.0 0.0 0.0 0.0 0.0 0.0 0.0 0.0 0.0 0.0 0.0 0.0 0.0 0.0 0.0 0.0 0.0 0.3
0.2 0.5 0.0 0.0 0.0 0.0 0.0 0.0 0.0 0.0 0.0 0.0 0.0 0.0 0.0 0.0 0.0 0.0 0.0 0.0 0.0 0.0 0.0 0.0 0.0 0.0 0.0 0.0 0.0 0.0 0.0 0.0 0.0 0.0 0.0 0.0 0.0 0.0 0.2 0.0 0.2 0.1 0.5 0.6
0.2 0.0 0.0 0.0 0.0 0.0 0.0 0.0 0.0 0.0 0.0 0.0 0.0 0.0 0.0 0.0 0.0 0.0 0.0 0.0 0.0 0.0 0.0 0.0 0.0 0.0 0.0 0.0 0.0 0.0 0.0 0.0 0.0 0.0 0.0 0.0 0.2 0.3 0.4 0.5 0.6 0.8 0.9 1.2
0.1 0.0 0.0 0.0 0.0 0.0 0.0 0.0 0.0 0.0 0.0 0.0 0.0 0.0 0.0 0.0 0.0 0.0 0.0 0.0 0.0 0.0 0.0 0.0 0.0 0.0 0.0 0.0 0.0 0.0 0.0 0.0 0.0 0.0 0.0 0.1 0.2 0.8 0.9 0.7 0.9 1.2 1.2 1.1
0.2 0.0 0.0 0.0 0.0 0.0 0.0 0.0 0.0 0.0 0.0 0.0 0.0 0.0 0.0 0.0 0.0 0.0 0.0 0.0 0.0 0.0 0.0 0.0 0.0 0.0 0.0 0.0 0.0 0.0 0.0 0.0 0.1 0.1 0.2 0.2 0.4 0.7 nan nan nan nan nan 1.3
0.0 0.0 0.0 0.0 0.0 0.0 0.0 0.0 0.0 0.0 0.0 0.0 0.0 0.0 0.0 0.0 0.0 nan 0.0 0.0 0.0 0.0 0.0 0.0 0.0 0.0 0.0 0.0 0.0 0.0 0.0 0.0 0.2 0.2 0.3 0.4 0.5 0.9 1.8 1.9 nan nan nan nan
0.0 0.0 0.0 0.0 0.0 0.0 0.0 0.0 0.0 0.0 0.0 0.0 0.0 0.0 0.0 0.0 0.0 0.0 0.0 0.0 0.0 0.0 0.0 0.0 0.0 0.0 0.0 0.0 0.0 0.0 0.0 0.0 0.5 0.8 0.9 1.3 1.5 1.6 1.6 2.4 3.5 2.4 nan nan
0.0 0.0 0.0 0.0 0.0 0.0 0.0 0.0 0.0 0.0 0.0 0.0 0.0 0.0 0.0 0.1 0.2 0.2 0.0 0.0 0.0 0.0 0.0 0.0 0.0 0.0 0.0 0.0 0.0 0.0 0.1 0.4 0.4 0.4 0.5 0.4 0.6 0.8 0.8 1.0 1.0 1.0 0.9 0.5
0.0 0.0 0.0 0.0 0.0 0.0 0.0 0.0 0.0 0.0 0.0 0.0 0.0 0.2 0.1 0.1 0.1 0.1 0.0 0.0 0.0 0.2 0.1 1.3 0.2 0.1 0.0 0.0 0.0 0.0 0.2 0.0 0.2 0.5 0.6 0.7 0.6 0.9 0.8 0.8 0.8 0.7 0.7 0.7
0.1 0.2 0.0 0.0 0.0 0.0 0.0 0.0 0.0 0.3 0.3 0.3 0.4 0.4 0.4 0.3 0.1 0.0 0.0 0.1 0.3 0.4 0.3 0.1 1.4 1.0 0.3 0.1 0.0 0.3 0.3 0.3 0.0 0.3 0.5 0.5 0.7 0.9 0.8 1.1 1.1 1.0 1.1 1.5
0.0 0.1 0.0 0.0 0.0 0.1 0.3 0.3 0.7 1.0 1.2 0.8 0.7 0.6 1.1 0.9 0.3 0.3 0.2 0.2 0.7 2.1 0.2 0.5 1.0 1.4 0.8 0.1 0.0 0.2 0.3 0.3 0.4 0.5 0.5 1.0 0.8 0.6 0.9 1.0 1.0 1.3 1.3 1.3
0.0 0.9 0.5 0.2 0.4 0.8 1.3 2.1 1.6 1.4 1.9 1.2 1.7 2.3 2.2 3.0 1.4 1.8 1.8 4.9 5.2 0.6 1.8 0.5 0.0 0.0 0.0 0.0 0.1 0.3 0.4 0.6 0.5 0.5 0.6 3.0 1.5 0.8 1.5 1.9 1.5 1.8 1.4 1.9
1.1 1.4 1.8 1.7 1.6 1.6 2.8 2.4 2.0 1.9 1.2 0.5 3.8 5.0 3.7 6.9 5.9 6.5 3.3 1.8 0.4 1.2 0.1 0.0 0.0 0.0 0.0 0.0 0.1 0.2 0.4 0.8 0.7 1.5 2.3 1.4 3.0 4.5 2.4 4.5 2.4 2.9 5.2 4.0
3.0 2.8 3.0 2.6 4.7 5.1 5.8 4.7 4.0 3.5 4.4 5.6 5.4 7.6 7.9 5.1 5.2 6.5 1.7 0.7 0.1 0.1 0.0 0.0 0.1 0.2 0.0 0.0 0.0 0.5 1.1 2.3 2.8 2.0 2.4 5.6 7.5 5.1 5.2 5.5 5.2 6.4 7.6 5.8
1.6 2.6 3.9 3.1 1.6 2.6 1.9 0.2 0.1 3.2 3.4 5.8 8.4 9.3 7.3 2.0 3.9 3.1 4.6 0.5 0.6 0.0 0.3 0.3 0.3 0.8 0.8 2.0 0.4 2.1 1.0 1.4 2.5 2.8 3.5 5.7 6.2 9.9 10.1 7.9 8.5 9.0 9.2 9.3
0.6 0.2 0.5 1.1 0.9 0.2 0.1 0.2 4.1 2.7 6.8 6.5 7.3 2.8 0.7 0.5 0.5 0.9 1.3 0.1 0.3 1.5 0.3 0.7 2.4 2.7 3.0 3.4 3.1 4.1 4.8 5.4 5.8 5.7 6.2 10.0 9.8 15.7 8.6 8.4 9.4 10.5 16.0 11.9
0.1 0.1 0.1 0.0 0.0 0.0 0.0 0.0 0.0 0.1 5.0 2.3 4.1 6.1 0.1 1.9 2.5 0.3 0.4 3.0 3.3 8.3 6.6 2.7 4.8 3.9 4.3 6.3 6.8 8.4 7.7 8.8 9.9 12.2 6.5 7.8 16.0 13.0 10.5 15.5 11.1 13.2 15.6 14.1
0.3 0.3 0.1 0.2 0.0 0.5 0.0 0.0 0.1 0.1 0.1 0.2 0.1 0.1 0.0 0.5 2.0 1.4 2.0 2.6 4.7 2.8 4.0 5.2 4.4 5.3 10.4 10.8 10.2 11.2 11.5 10.3 11.7 13.3 10.2 15.1 14.8 21.2 18.4 15.6 19.6 18.6 20.3 18.4
0.0 0.5 0.4 0.0 0.2 0.4 0.4 0.4 0.6 0.6 0.5 2.0 1.5 5.9 3.5 2.0 1.8 2.1 3.6 4.9 2.9 5.3 4.4 11.2 16.3 15.1 13.1 9.6 10.9 11.8 9.3 7.1 10.0 10.9 13.2 13.7 14.5 12.5 15.4 14.5 18.9 22.6 27.8 30.9
0.5 0.1 0.4 0.4 0.3 0.4 0.4 0.5 0.9 1.3 1.9 3.3 4.5 4.4 2.9 5.4 7.8 5.5 7.3 10.7 10.9 12.9 13.5 15.7 14.5 10.1 9.0 13.3 11.7 11.0 10.7 11.2 10.3 10.1 16.6 18.8 18.9 25.2 25.0 25.5 29.4 30.1 27.5 25.7
Water_Equivalent
0.00 0.00 0.00 0.00 0.00 0.00 0.00 0.00 0.01 0.00 0.00 0.00 0.00 0.00 0.00 0.00 0.00 0.00 0.00 0.00 0.00 0.00 0.00 0.00 0.00 0.00 0.00 0.00 0.00 0.00 0.00 0.00 0.00 0.00 0.00 0.00 0.00 0.00 0.00 0.00 0.00 0.00 0.00 0.00
0.00 0.00 0.00 0.00 0.00 0.00 0.00 0.00 0.00 0.00 0.00 0.00 0.00 0.00 0.00 0.00 0.00 0.00 0.00 0.00 0.00 0.00 0.00 0.00 0.00 0.00 0.00 0.00 0.00 0.00 0.00 0.00 0.00 0.00 0.00 0.00 0.00 0.00 0.00 0.00 0.00 0.00 0.00 0.00
0.04 0.00 0.00 0.22 0.00 0.00 0.00 0.00 0.00 0.00 0.00 0.00 0.00 0.00 0.00 0.00 0.00 0.00 0.00 0.00 0.00 0.00 0.00 0.00 0.00 0.00 0.00 0.00 0.00 0.00 0.00 0.00 0.00 0.00 0.00 0.00 0.00 0.00 0.00 0.00 0.00 0.00 0.00 0.00
0.35 0.06 2.52 0.01 0.00 0.00 0.00 0.00 0.00 0.00 0.00 0.00 0.00 0.00 0.00 0.00 0.00 0.00 0.00 0.00 0.00 0.00 0.00 0.00 0.00 0.00 0.00 0.00 0.00 0.00 0.00 0.00 0.00 0.00 0.00 0.00 0.00 0.00 0.00 0.00 0.00 0.00 0.00 0.00
1.89 0.47 0.00 0.00 0.00 0.00 0.00 0.00 0.00 0.00 0.00 0.00 0.00 0.00 0.00 0.00 0.00 0.00 0.00 0.00 0.00 0.00 0.00 0.00 0.00 0.00 0.00 0.00 0.00 0.00 0.00 0.00 0.00 0.00 0.00 0.00 0.00 0.00 0.00 0.00 0.00 0.00 0.00 0.00
1.68 1.56 0.84 0.00 0.00 0.00 0.00 0.01 0.00 0.00 0.00 0.00 0.00 0.00 0.00 0.00 0.00 0.00 0.00 0.00 0.00 0.00 0.00 0.00 0.00 0.00 0.00 0.00 0.00 0.00 0.00 0.00 0.00 0.00 0.00 0.00 0.00 0.00 0.00 0.00 0.00 0.04 0.00 0.00
0.22 1.00 0.34 0.00 0.00 0.00 0.07 0.01 0.00 0.00 0.00 0.00 0.00 0.00 0.00 0.00 0.00 0.00 0.00 0.00 0.00 0.00 0.00 0.00 0.00 0.00 0.00 0.00 0.00 0.00 0.00 0.00 0.00 0.00 0.00 0.00 0.00 0.00 0.00 0.00 0.00 0.00 0.00 0.00
0.22 0.55 1.43 0.00 0.00 0.00 0.01 0.00 0.00 0.00 0.00 0.00 0.00 0.00 0.00 0.00 0.00 0.00 0.00 0.00 0.00 0.00 0.00 0.00 0.00 0.00 0.00 0.00 0.00 0.00 0.00 0.00 0.00 0.00 0.00 0.00 0.00 0.00 0.00 0.00 0.00 0.01 0.01 0.10
0.07 0.16 0.00 0.00 0.00 0.00 0.00 0.00 0.00 0.00 0.00 0.00 0.00 0.00 0.00 0.00 0.00 0.00 0.00 0.00 0.00 0.00 0.00 0.00 0.00 0.00 0.00 0.00 0.00 0.00 0.00 0.00 0.00 0.00 0.00 0.00 0.00 0.00 0.08 0.00 0.08 0.03 0.18 0.22
0.05 0.00 0.00 0.00 0.00 0.00 0.00 0.00 0.00 0.00 0.00 0.00 0.00 0.00 0.00 0.00 0.00 0.00 0.00 0.00 0.00 0.00 0.00 0.00 0.00 0.00 0.00 0.00 0.00 0.00 0.00 0.00 0.00 0.00 0.00 0.00 0.09 0.12 0.15 0.18 0.26 0.33 0.37 0.45
0.03 0.00 0.00 0.00 0.00 0.00 0.00 0.00 0.00 0.00 0.00 0.00 0.00 0.00 0.00 0.00 0.00 0.00 0.00 0.00 0.00 0.00 0.00 0.00 0.00 0.00 0.00 0.00 0.00 0.00 0.00 0.00 0.00 0.01 0.01 0.02 0.09 0.34 0.34 0.27 0.37 0.48 0.49 0.46
0.08 0.00 0.00 0.00 0.00 0.00 0.00 0.00 0.00 0.00 0.00 0.00 0.00 0.00 0.00 0.00 0.00 0.00 0.00 0.00 0.00 0.00 0.00 0.00 0.00 0.00 0.00 0.00 0.00 0.00 0.00 0.00 0.03 0.04 0.08 0.09 0.15 0.27 nan nan nan nan nan 0.52
0.00 0.00 0.00 0.00 0.00 0.00 0.00 0.00 0.00 0.00 0.00 0.00 0.00 0.00 0.00 0.00 0.00 nan 0.00 0.00 0.00 0.00 0.00 0.00 0.00 0.00 0.00 0.00 0.00 0.00 0.00 0.00 0.07 0.06 0.11 0.17 0.21 0.33 0.64 0.77 nan nan nan nan
0.00 0.01 0.00 0.00 0.00 0.00 0.00 0.00 0.00 0.00 0.00 0.00 0.01 0.00 0.00 0.00 0.00 0.00 0.00 0.00 0.00 0.00 0.00 0.00 0.00 0.00 0.00 0.00 0.00 0.02 0.00 0.00 0.21 0.30 0.34 0.51 0.61 0.64 0.63 0.91 1.23 0.87 nan nan
0.00 0.00 0.00 0.00 0.00 0.00 0.00 0.00 0.00 0.00 0.00 0.00 0.00 0.01 0.00 0.02 0.04 0.04 0.00 0.00 0.00 0.00 0.00 0.00 0.00 0.00 0.00 0.00 0.00 0.00 0.04 0.15 0.14 0.17 0.20 0.18 0.26 0.30 0.32 0.35 0.37 0.35 0.30 0.15
0.00 0.00 0.00 0.00 0.00 0.00 0.00 0.00 0.00 0.01 0.01 0.00 0.00 0.04 0.03 0.02 0.02 0.02 0.00 0.00 0.01 0.04 0.02 0.33 0.05 0.02 0.01 0.00 0.00 0.00 0.07 0.00 0.09 0.17 0.22 0.25 0.24 0.29 0.27 0.27 0.25 0.23 0.22 0.23
0.02 0.08 0.01 0.01 0.00 0.00 0.00 0.00 0.01 0.13 0.13 0.10 0.09 0.08 0.07 0.04 0.01 0.01 0.00 0.01 0.07 0.09 0.06 0.03 0.33 0.33 0.08 0.02 0.01 0.13 0.12 0.12 0.00 0.13 0.18 0.20 0.25 0.29 0.26 0.34 0.35 0.29 0.35 0.50
0.00 0.02 0.00 0.01 0.00 0.05 0.10 0.09 0.19 0.30 0.38 0.19 0.14 0.12 0.33 0.28 0.05 0.06 0.05 0.04 0.17 0.48 0.06 0.15 0.26 0.35 0.21 0.02 0.01 0.07 0.12 0.13 0.13 0.18 0.18 0.31 0.27 0.22 0.29 0.30 0.28 0.35 0.40 0.39
0.01 0.24 0.12 0.05 0.11 0.18 0.31 0.52 0.37 0.34 0.44 0.21 0.43 0.56 0.60 0.82 0.35 0.46 0.47 1.21 1.28 0.16 0.45 0.12 0.00 0.01 0.01 0.01 0.03 0.10 0.14 0.23 0.18 0.17 0.21 0.99 0.48 0.25 0.43 0.57 0.44 0.56 0.40 0.50
0.26 0.36 0.50 0.50 0.53 0.48 0.61 0.54 0.41 0.36 0.25 0.14 1.07 1.32 0.89 1.65 1.49 1.60 0.79 0.41 0.11 0.32 0.02 0.01 0.00 0.00 0.00 0.00 0.02 0.08 0.14 0.29 0.22 0.44 0.65 0.37 0.85 1.30 0.68 1.46 0.64 0.82 1.61 1.17
0.60 0.52 0.58 0.52 0.89 1.16 1.42 1.26 1.00 0.77 1.07 1.48 1.46 1.87 1.82 1.23 1.25 1.55 0.42 0.20 0.02 0.02 0.00 0.00 0.03 0.06 0.01 0.00 0.01 0.18 0.39 0.75 0.85 0.54 0.63 1.60 2.18 1.44 1.36 1.56 1.44 1.88 2.27 1.66
0.25 0.41 0.76 0.61 0.27 0.43 0.39 0.07 0.03 0.74 0.78 1.34 2.05 2.26 1.69 0.45 0.84 0.66 1.05 0.12 0.15 0.01 0.10 0.10 0.08 0.27 0.26 0.66 0.11 0.68 0.32 0.42 0.69 0.75 0.91 1.57 1.62 2.58 2.61 2.09 2.16 2.45 2.52 2.60
0.08 0.03 0.09 0.25 0.21 0.03 0.02 0.05 0.95 0.67 1.45 1.38 1.57 0.68 0.20 0.15 0.14 0.24 0.33 0.02 0.08 0.48 0.08 0.20 0.77 0.90 0.98 1.07 0.97 1.25 1.40 1.50 1.52 1.35 1.46 2.39 2.21 3.68 1.78 1.75 2.11 2.24 3.46 2.36
0.02 0.01 0.02 0.01 0.01 0.00 0.01 0.01 0.00 0.02 1.09 0.50 0.85 1.30 0.04 0.52 0.74 0.09 0.10 0.99 1.08 2.80 1.90 0.72 1.41 1.27 1.43 1.70 1.71 2.11 1.92 2.15 2.26 2.60 1.22 2.49 3.63 2.66 2.03 3.12 1.97 2.50 2.88 2.56
0.08 0.07 0.03 0.06 0.01 0.14 0.00 0.00 0.03 0.03 0.03 0.04 0.01 0.02 0.01 0.13 0.57 0.34 0.56 0.65 1.53 0.84 1.02 1.63 1.45 1.76 2.54 2.62 2.37 2.50 2.47 2.10 2.39 2.80 1.98 3.12 2.91 4.31 3.64 2.76 3.30 3.37 3.39 2.99
0.01 0.16 0.12 0.01 0.07 0.11 0.11 0.12 0.15 0.17 0.14 0.51 0.34 1.56 0.96 0.52 0.44 0.46 0.79 1.41 0.61 1.67 0.87 2.52 3.50 3.40 3.01 2.04 2.33 2.43 1.77 1.30 1.84 1.90 2.25 2.27 2.31 1.87 2.32 2.15 2.96 3.77 4.75 5.18
0.14 0.04 0.12 0.11 0.10 0.12 0.12 0.13 0.24 0.34 0.54 0.87 1.02 1.01 0.66 1.15 1.56 1.31 2.12 2.13 2.10 2.48 2.60 3.20 2.81 2.68 1.62 2.62 2.13 1.82 1.70 1.77 2.79 1.46 2.56 3.03 2.92 4.13 3.80 3.88 4.44 4.85 4.09 3.57
SL_Ratio
nan nan nan nan nan nan nan nan 3.8 nan nan nan nan nan nan nan nan nan nan nan nan nan nan nan nan nan nan nan nan nan nan nan nan nan nan nan nan nan nan nan nan nan nan nan
nan nan nan nan nan nan nan nan nan nan nan nan nan nan nan nan nan nan nan nan nan nan nan nan nan nan nan nan nan nan nan nan nan nan nan nan nan nan nan nan nan nan nan nan
6.2 nan nan 3.7 nan nan nan nan nan nan nan nan nan nan nan nan nan nan nan nan nan nan nan nan nan nan nan nan nan nan nan nan nan nan nan nan nan nan nan nan nan nan nan nan
4.0 3.3 5.2 3.5 nan nan nan nan nan nan nan nan nan nan nan nan nan nan nan nan nan nan nan nan nan nan nan nan nan nan nan nan nan nan nan nan nan nan nan nan nan nan nan nan
4.1 3.6 6.0 nan nan nan nan nan nan nan nan nan nan nan nan nan nan nan nan nan nan nan nan nan nan nan nan nan nan nan nan nan nan nan nan nan nan nan nan nan nan nan nan nan
3.0 4.4 5.2 nan nan nan nan 4.4 nan nan nan nan nan nan nan nan nan nan nan nan nan nan nan nan nan nan nan nan nan nan nan nan nan nan nan nan nan nan nan nan nan 2.5 nan nan
3.4 3.7 3.9 nan nan nan 4.3 4.1 nan nan nan nan nan nan nan nan nan nan nan nan nan nan nan nan nan nan nan nan nan nan nan nan nan nan nan nan nan nan nan nan nan nan nan 5.0
3.2 3.8 5.1 nan nan 10.0 2.6 nan nan nan nan nan nan nan nan nan nan nan nan nan nan nan nan nan nan nan nan nan nan nan nan nan nan nan nan nan nan nan nan nan nan 2.6 2.6 2.5
3.1 3.3 nan nan nan nan nan nan nan nan nan nan nan nan nan nan nan nan nan nan nan nan nan nan nan nan nan nan nan nan nan nan nan nan nan nan nan nan 2.5 nan 2.5 2.6 2.5 2.6
3.7 nan nan nan nan nan nan nan nan nan nan nan nan nan nan nan nan nan nan nan nan nan nan nan nan nan nan nan nan nan nan nan nan nan nan 10.0 2.5 2.5 2.5 2.5 2.5 2.5 2.5 2.6
3.7 nan nan nan nan nan nan nan nan nan nan nan nan nan nan nan nan nan nan nan nan nan nan nan nan nan nan nan nan nan nan nan nan 2.5 2.2 2.6 2.5 2.5 2.5 2.5 2.5 2.5 2.5 2.5
2.5 nan nan nan nan nan nan nan nan nan nan nan nan nan nan nan nan nan nan nan nan 5.0 0.0 nan nan nan nan nan nan nan nan nan 2.5 2.5 2.5 2.5 2.5 2.5 nan nan nan nan nan 2.5
nan nan nan nan nan nan nan nan nan nan nan nan nan nan nan nan nan nan nan nan nan nan nan nan nan nan nan nan nan nan nan nan 2.5 2.5 2.5 2.5 2.5 2.8 2.9 2.5 nan nan nan nan
nan 2.6 2.5 nan 2.7 nan nan nan nan nan nan nan 2.4 2.5 nan nan 3.3 2.5 3.3 nan nan nan nan nan nan 2.5 nan nan nan 2.4 2.9 nan 2.6 2.6 2.5 2.5 2.5 2.5 2.5 2.6 2.9 2.7 nan nan
nan nan 2.0 nan 0.0 nan nan nan nan nan nan nan 0.0 5.6 3.3 5.7 4.9 4.7 5.0 6.7 5.0 nan nan nan nan nan 10.0 nan nan 3.3 2.6 2.8 2.6 2.5 2.5 2.5 2.5 2.6 2.7 2.8 2.8 2.9 3.0 3.1
nan nan nan nan nan nan nan nan 3.3 2.4 2.5 0.0 4.6 5.5 4.4 4.4 5.4 6.1 5.8 nan 3.1 3.8 4.5 3.9 4.8 4.1 3.3 0.0 nan nan 2.5 3.3 2.5 2.7 2.7 2.7 2.7 3.0 3.1 3.0 3.0 2.9 3.0 3.1
2.6 2.5 2.6 3.7 nan nan nan nan 2.8 2.6 2.5 3.4 4.7 4.6 5.4 6.4 6.8 4.2 3.3 4.6 4.0 3.9 4.2 4.1 4.2 3.1 3.5 3.0 3.6 2.6 2.5 2.5 nan 2.5 2.7 2.8 3.0 3.1 3.2 3.3 3.3 3.4 3.1 2.9
nan 2.5 0.0 2.6 nan 2.6 3.3 3.5 3.5 3.2 3.2 4.0 4.7 5.0 3.5 3.4 4.7 4.6 4.4 4.1 4.2 4.4 3.8 3.7 3.8 3.9 3.8 3.1 2.9 2.5 2.6 2.7 2.7 2.7 2.8 3.2 3.1 3.0 3.2 3.4 3.5 3.7 3.4 3.3
3.2 3.7 3.9 3.2 3.5 4.2 4.3 4.1 4.3 4.2 4.4 5.7 4.1 4.1 3.7 3.7 4.0 3.9 3.8 4.1 4.0 4.1 4.1 3.8 nan 3.8 3.9 3.7 2.8 2.7 2.7 2.7 2.9 3.0 3.0 3.0 3.2 3.3 3.4 3.3 3.5 3.2 3.5 3.9
4.3 3.8 3.5 3.5 3.0 3.3 4.6 4.4 4.9 5.2 4.8 3.8 3.6 3.7 4.1 4.1 3.9 4.1 4.2 4.5 3.9 3.8 4.2 3.5 4.2 nan nan nan 2.9 3.1 2.8 2.7 3.1 3.3 3.5 3.9 3.6 3.5 3.6 3.1 3.8 3.6 3.2 3.4
5.0 5.4 5.2 5.1 5.2 4.4 4.1 3.8 4.0 4.5 4.1 3.8 3.7 4.1 4.3 4.1 4.2 4.2 4.1 3.8 4.4 3.9 4.4 nan 3.2 3.1 3.2 3.0 2.8 2.9 2.9 3.1 3.3 3.7 3.7 3.5 3.4 3.5 3.8 3.5 3.6 3.4 3.3 3.5
6.5 6.4 5.1 5.1 6.1 6.0 4.8 3.8 3.9 4.3 4.4 4.3 4.1 4.1 4.3 4.5 4.6 4.6 4.4 4.0 3.8 3.1 3.3 3.3 3.5 3.1 3.1 3.0 3.1 3.0 3.2 3.3 3.6 3.7 3.8 3.6 3.8 3.9 3.9 3.8 3.9 3.7 3.7 3.6
6.6 6.7 6.0 4.3 4.2 6.2 4.2 3.9 4.3 4.1 4.7 4.7 4.7 4.2 3.7 3.5 3.5 3.6 4.1 4.7 3.5 3.1 3.4 3.5 3.1 3.0 3.0 3.2 3.2 3.3 3.4 3.6 3.8 4.2 4.2 4.2 4.4 4.3 4.8 4.8 4.4 4.7 4.6 5.0
5.3 5.0 4.2 3.6 3.7 nan 4.0 3.7 2.9 4.2 4.6 4.7 4.9 4.7 3.7 3.6 3.3 3.6 3.8 3.0 3.0 3.0 3.5 3.7 3.4 3.0 3.0 3.7 4.0 4.0 4.0 4.1 4.4 4.7 5.4 3.1 4.4 4.9 5.2 5.0 5.7 5.3 5.4 5.5
3.8 3.6 3.8 3.8 3.7 3.6 3.3 3.3 3.8 3.7 3.8 3.8 4.0 3.9 4.1 3.7 3.5 4.1 3.6 4.0 3.1 3.4 3.9 3.2 3.0 3.0 4.1 4.1 4.3 4.5 4.6 4.9 4.9 4.7 5.2 4.8 5.1 4.9 5.1 5.6 6.0 5.5 6.0 6.1
3.6 3.3 3.3 3.7 3.4 3.4 3.5 3.5 3.8 3.8 3.7 3.9 4.3 3.8 3.6 3.9 4.1 4.5 4.5 3.5 4.7 3.2 5.1 4.4 4.7 4.4 4.4 4.7 4.7 4.9 5.2 5.5 5.4 5.7 5.9 6.0 6.3 6.7 6.6 6.7 6.4 6.0 5.8 6.0
3.6 3.3 3.4 3.4 3.5 3.5 3.6 3.7 3.7 3.9 3.5 3.8 4.4 4.4 4.3 4.7 5.0 4.2 3.4 5.0 5.2 5.2 5.2 4.9 5.2 3.8 5.6 5.1 5.5 6.0 6.3 6.3 3.7 7.0 6.5 6.2 6.5 6.1 6.6 6.6 6.6 6.2 6.7 7.2